Pensacola, FL

12:35 AM CST on January 23, 2018 (GMT -0600)
Pensacola Regional

Weather History for KPNS - March, 2012

Change the Weather History Date:

Monday, March 19, 2012

  Actual Average Record
Temperature  
Mean Temperature 71 °F 61 °F  
Max Temperature 77 °F 70 °F 83 °F (1953)
Min Temperature 65 °F 52 °F 27 °F (1892)
Degree Days  
Heating Degree Days 0 5  
Month to date heating degree days 28 126  
Since 1 July heating degree days 906 1434  
Cooling Degree Days 6 1  
Month to date cooling degree days 64 18  
Year to date cooling degree days 116 32  
Growing Degree Days 22 (Base 50)    
Moisture  
Dew Point 65 °F    
Average Humidity 80    
Maximum Humidity 100    
Minimum Humidity 60    
Precipitation  
Precipitation 0.00 in 0.19 in 1.62 in (1955)
Month to date precipitation 2.35 3.64  
Year to date precipitation 10.59 13.33  
Snow  
Snow 0.00 in 0.00 in - ()
Month to date snowfall 0.0 0.0  
Since 1 July snowfall 0.0 0.0  
Snow Depth 0.00 in    
Sea Level Pressure  
Sea Level Pressure 30.12 in    
Wind  
Wind Speed 9 mph (SE)    
Max Wind Speed 16 mph    
Max Gust Speed 21 mph    
Visibility 8 miles    
Events      
T = Trace of Precipitation, MM = Missing Value Source: NWS Daily Summary

Daily Weather History Graph

Daily Weather History Graph

Search for Another Location

Airport or City:

Trip Planner

Search our weather history database for the weather conditions in past years. The results will help you decide how hot, cold, wet, or windy it might be!

Date:

Astronomy

Mar. 19, 2012 Rise Set
Actual Time 6:53 AM CDT 6:59 PM CDT
Civil Twilight 6:29 AM CDT 7:23 PM CDT
Nautical Twilight 6:01 AM CDT 7:51 PM CDT
Astronomical Twilight 5:33 AM CDT 8:20 PM CDT
Moon 4:54 AM CDT (3/19) 4:35 PM CDT (3/19)
Length of Visible Light 12h 54m
Length of Day
12h 06m
Waning Crescent, 8% of the Moon is Illuminated
Mar 19
Waning Crescent
Mar 22
New
Mar 30
First Quarter
Apr 6
Full
Apr 13
Last Quarter

Hourly Weather History & Observations

Time (CDT) Temp. Dew Point Humidity Pressure Visibility Wind Dir Wind Speed Gust Speed Precip Events Conditions
12:53 AM 66.0 °F 64.0 °F 93% 30.16 in 10.0 mi ESE 3.5 mph - N/A   Clear
1:53 AM 68.0 °F 66.0 °F 93% 30.14 in 10.0 mi East 6.9 mph - N/A   Clear
2:53 AM 68.0 °F 66.0 °F 93% 30.12 in 6.0 mi ESE 5.8 mph - N/A   Partly Cloudy
2:58 AM 68.0 °F 66.2 °F 94% 30.11 in 1.8 mi ESE 5.8 mph - N/A   Scattered Clouds
3:04 AM 68.0 °F 66.2 °F 94% 30.11 in 0.8 mi ESE 6.9 mph - N/A   Mist
3:14 AM 68.0 °F 66.2 °F 94% 30.11 in 1.8 mi ESE 6.9 mph - N/A   Mostly Cloudy
3:17 AM 68.0 °F 66.2 °F 94% 30.11 in 3.0 mi ESE 6.9 mph - N/A   Mostly Cloudy
3:35 AM 66.2 °F 66.2 °F 100% 30.11 in 10.0 mi ESE 5.8 mph - N/A   Scattered Clouds
3:53 AM 66.9 °F 66.0 °F 97% 30.11 in 8.0 mi SE 3.5 mph - N/A   Mostly Cloudy
4:53 AM 68.0 °F 66.0 °F 93% 30.12 in 9.0 mi ESE 4.6 mph - N/A   Mostly Cloudy
5:53 AM 66.9 °F 64.9 °F 93% 30.12 in 9.0 mi East 4.6 mph - N/A   Mostly Cloudy
6:53 AM 66.2 °F 64.4 °F 94% 30.13 in 10.0 mi ESE 4.6 mph - N/A   Overcast
7:53 AM 66.0 °F 64.0 °F 93% 30.15 in 1.0 mi ESE 8.1 mph - N/A   Mostly Cloudy
8:49 AM 69.8 °F 66.2 °F 88% 30.15 in 10.0 mi ESE 10.4 mph - N/A   Scattered Clouds
8:53 AM 69.1 °F 66.0 °F 90% 30.16 in 10.0 mi ESE 11.5 mph - N/A   Mostly Cloudy
9:44 AM 69.8 °F 64.4 °F 83% 30.17 in 10.0 mi ESE 13.8 mph - 0.01 in   Partly Cloudy
9:53 AM 71.6 °F 64.4 °F 78% 30.17 in 10.0 mi ESE 12.7 mph - N/A   Partly Cloudy
10:53 AM 73.0 °F 63.0 °F 71% 30.17 in 10.0 mi ESE 11.5 mph 20.7 mph N/A   Clear
11:53 AM 75.0 °F 61.0 °F 62% 30.16 in 10.0 mi SE 13.8 mph - N/A   Clear
12:53 PM 77.0 °F 62.1 °F 60% 30.16 in 10.0 mi SE 10.4 mph - N/A   Clear
1:53 PM 75.9 °F 63.0 °F 64% 30.14 in 10.0 mi SE 9.2 mph - N/A   Clear
2:53 PM 75.9 °F 64.9 °F 69% 30.12 in 10.0 mi SE 11.5 mph - N/A   Clear
3:53 PM 75.9 °F 66.0 °F 71% 30.11 in 10.0 mi SE 9.2 mph - N/A   Clear
4:53 PM 75.0 °F 66.0 °F 73% 30.09 in 10.0 mi SSE 10.4 mph 19.6 mph N/A   Clear
5:53 PM 73.0 °F 66.9 °F 81% 30.09 in 10.0 mi SE 9.2 mph - N/A   Clear
6:42 PM 71.6 °F 66.2 °F 83% 30.08 in 10.0 mi SSE 9.2 mph - N/A   Partly Cloudy
6:53 PM 71.6 °F 66.2 °F 83% 30.08 in 10.0 mi SE 5.8 mph - N/A   Partly Cloudy
7:53 PM 70.0 °F 66.9 °F 90% 30.09 in 10.0 mi SE 8.1 mph - N/A   Partly Cloudy
8:26 PM 69.8 °F 68.0 °F 94% 30.07 in 10.0 mi SE 9.2 mph - N/A   Mostly Cloudy
8:37 PM 69.8 °F 66.2 °F 88% 30.07 in 10.0 mi SE 9.2 mph - N/A   Scattered Clouds
8:53 PM 70.0 °F 66.9 °F 90% 30.08 in 10.0 mi SE 8.1 mph - N/A   Clear
9:53 PM 70.0 °F 66.9 °F 90% 30.08 in 10.0 mi SE 8.1 mph - N/A   Clear
10:53 PM 69.1 °F 66.0 °F 90% 30.07 in 10.0 mi SE 8.1 mph - N/A   Clear
11:53 PM 69.1 °F 64.9 °F 87% 30.05 in 10.0 mi SSE 9.2 mph - N/A   Clear